Mansfield, OH

5:05 AM EST on November 15, 2019 (GMT -0500)
Mansfield Lahm Regional

Weather History for KMFD - October, 2019

Change the Weather History Date:

Wednesday, October 23, 2019

  Actual Average Record
Temperature  
Mean Temperature 52 °F 50 °F  
Max Temperature 61 °F 59 °F 78 °F (1963)
Min Temperature 43 °F 40 °F 21 °F (1944)
Degree Days  
Heating Degree Days 13 16  
Month to date heating degree days 195 283  
Since 1 July heating degree days 202 433  
Cooling Degree Days 0 0  
Month to date cooling degree days 35 5  
Year to date cooling degree days 979 630  
Growing Degree Days 2 (Base 50)    
Moisture  
Dew Point 34 °F    
Average Humidity 54    
Maximum Humidity 71    
Minimum Humidity 36    
Precipitation  
Precipitation 0.00 in 0.10 in 1.66 in (2007)
Month to date precipitation 0.98 2.15  
Year to date precipitation 41.15 36.30  
Snow  
Snow 0.00 in 0.00 in - ()
Month to date snowfall 0.0 0.2  
Since 1 July snowfall 0.0 0.2  
Since 1 September snowfall 0.0 0.2  
Snow Depth 0.00 in    
Sea Level Pressure  
Sea Level Pressure 30.02 in    
Wind  
Wind Speed 14 mph (SW)    
Max Wind Speed 23 mph    
Max Gust Speed 30 mph    
Visibility 10 miles    
Events      
T = Trace of Precipitation, MM = Missing Value Source: NWS Daily Summary

Daily Weather History Graph

Daily Weather History Graph

Search for Another Location

Airport or City:

Astronomy

Oct. 23, 2019 Rise Set
Actual Time 7:49 AM EDT 6:38 PM EDT
Civil Twilight 7:21 AM EDT 7:06 PM EDT
Nautical Twilight 6:49 AM EDT 7:38 PM EDT
Astronomical Twilight 6:18 AM EDT 8:09 PM EDT
Moon 2:04 AM EDT (10/23) 4:30 PM EDT (10/23)
Length of Visible Light 11h 44m
Length of Day
10h 48m
Waning Crescent, 27% of the Moon is Illuminated
Oct 23
Waning Crescent
Oct 27
New
Nov 4
First Quarter
Nov 12
Full
Nov 19
Last Quarter

Hourly Weather History & Observations

Time (EDT) Temp. Windchill Dew Point Humidity Pressure Visibility Wind Dir Wind Speed Gust Speed Precip Events Conditions
12:52 AM 50.0 °F - 37.9 °F 63% 29.87 in 10.0 mi SW 13.8 mph - N/A   Partly Cloudy
1:52 AM 48.9 °F - 37.9 °F 66% 29.88 in 10.0 mi SW 12.7 mph - N/A   Clear
2:52 AM 48.0 °F - 37.9 °F 68% 29.89 in 10.0 mi SW 11.5 mph - N/A   Clear
3:52 AM 46.9 °F - 37.9 °F 71% 29.90 in 10.0 mi SW 10.4 mph - N/A   Clear
4:52 AM 46.0 °F 40.2 °F 37.0 °F 71% 29.92 in 10.0 mi SW 12.7 mph - N/A   Clear
5:52 AM 44.1 °F 39.0 °F 36.0 °F 73% 29.94 in 10.0 mi SW 9.2 mph - N/A   Clear
6:52 AM 44.1 °F 37.4 °F 35.1 °F 71% 29.96 in 10.0 mi SW 13.8 mph - N/A   Clear
7:52 AM 43.0 °F 36.8 °F 34.0 °F 71% 29.97 in 10.0 mi SW 11.5 mph - N/A   Clear
8:52 AM 45.0 °F 38.5 °F 34.0 °F 65% 30.00 in 10.0 mi SW 13.8 mph 20.7 mph N/A   Clear
9:52 AM 48.0 °F - 33.1 °F 56% 30.04 in 10.0 mi WSW 16.1 mph 23.0 mph N/A   Clear
10:52 AM 52.0 °F - 30.9 °F 45% 30.05 in 10.0 mi WSW 16.1 mph 24.2 mph N/A   Clear
11:52 AM 54.0 °F - 30.0 °F 40% 30.07 in 10.0 mi WSW 15.0 mph 25.3 mph N/A   Clear
12:52 PM 55.9 °F - 30.9 °F 39% 30.06 in 10.0 mi WSW 16.1 mph 26.5 mph N/A   Clear
1:52 PM 59.0 °F - 32.0 °F 36% 30.06 in 10.0 mi SW 17.3 mph 24.2 mph N/A   Clear
2:52 PM 60.1 °F - 33.1 °F 36% 30.06 in 10.0 mi SW 15.0 mph 26.5 mph N/A   Clear
3:52 PM 61.0 °F - 33.1 °F 35% 30.07 in 10.0 mi SW 16.1 mph 23.0 mph N/A   Clear
4:52 PM 61.0 °F - 33.1 °F 35% 30.07 in 10.0 mi SW 13.8 mph 21.9 mph N/A   Clear
5:52 PM 59.0 °F - 33.1 °F 38% 30.08 in 10.0 mi SSW 11.5 mph - N/A   Clear
6:52 PM 55.0 °F - 33.1 °F 43% 30.08 in 10.0 mi South 12.7 mph - N/A   Clear
7:52 PM 52.0 °F - 34.0 °F 50% 30.10 in 10.0 mi South 10.4 mph - N/A   Clear
8:52 PM 53.1 °F - 33.1 °F 47% 30.11 in 10.0 mi South 12.7 mph - N/A   Clear
9:52 PM 53.1 °F - 33.1 °F 47% 30.11 in 10.0 mi South 13.8 mph - N/A   Clear
10:52 PM 52.0 °F - 34.0 °F 50% 30.12 in 10.0 mi South 15.0 mph - N/A   Clear
11:52 PM 52.0 °F - 33.1 °F 49% 30.12 in 10.0 mi South 17.3 mph 25.3 mph N/A   Clear